Weather in Pivovarikha

Russia / Irkutsk Oblast     52°16′24″N   104°26′58″E
temp.,
°C
wind,
m/s
gust,
m/s
humid.,
%
clouds,
%
prec.,
mm/h
press.,
hPa
HPBL,
m
19 september, sun
sun1923:00+7sse228740 0.0 101336
02:00+7se22865 0.0 101333
05:00+7se238927 0.0 101352
08:00+9se24825 0.0 1012129
11:00+17s355570 0.0 1011635
14:00+20ssw3347100 0.0 1010792
17:00+19s33515 0.0 1009543
20:00+10s22885 0.0 101142
20 september, mon
mon2023:00+9se22925 0.0 101049
02:00+8se22940 0.0 100931
05:00+7se22941 0.0 100836
08:00+9se25865 0.0 1006127
11:00+19sse47545 0.0 1002644
14:00+22s57434 0.0 999844
17:00+21ssw37494 0.0 998643
20:00+13s238011 0.0 99947
21 september, tue
tue2123:00+9nw71482100 0.3 10091115
02:00+5wnw51193100 1.5 1013830
05:00+5nw4992100 1.9 1013819
08:00+5wnw3791100 2.1 1014618
11:00+6nw2481100 0.3 1015785
14:00+9wnw125797 0.3 10131187
17:00+11ese00484 0.0 10121117
20:00+5se25830 0.0 101486
22 september, wed
wed2223:00+3sse2290100 0.0 101542
02:00+3ese1184100 0.0 101412
05:00+4nnw1288100 0.3 101465
08:00+4wnw2390100 0.6 1016183
11:00+5wnw4589100 0.1 1017700
14:00+2wnw41097100 0.6 1019509
17:00+2wnw41097100 1.9 1020653
20:00+3nw4994100 2.0 1022684
23 september, thu
thu2323:00+2nw3893100 0.0 1023625
02:00+1wnw2795100 0.0 1024290
05:00−1w119791 0.0 102513
08:000w11945 0.0 102667
11:00+6wnw12655 0.0 1024679
14:00+10w01422 0.0 10221060
17:00+10se12413 0.0 10211211
20:00+3se22755 0.0 102321